Location: Poughquag
(41.6090°N, 73.6820°W)
Time: 09:28:43
(UTC-05:00)

Vanguard 1 - Pass Details

Date: 08 December 2023
Orbit: 653 x 3826 km, 34.3° (Epoch: 25 February)

Event Time Altitude Azimuth Distance (km) Brightness Sun altitude
Rises 19:31:50 0° 265° (W) 5,968 15.1 -34.2°
Reaches altitude 10° 19:35:08 10° 263° (W) 5,297 14.6 -34.8°
Maximum altitude 19:52:32 69° 185° (S) 3,708 12.7 -38.1°
Enters shadow 19:59:36 53° 128° (SE) 4,291 12.8 -39.4°
Drops below altitude 10° 20:15:55 10° 109° (ESE) 6,812 - -42.4°
Sets 20:20:54 0° 107° (ESE) 7,667 - -43.4°
